Clarksburg, WV

6:14 PM EST on November 12, 2019 (GMT -0500)
Benedum

Weather History for KCKB - September, 2019

Change the Weather History Date:

Sunday, September 1, 2019

  Actual Average Record
Temperature  
Mean Temperature 74 °F -  
Max Temperature 84 °F 82 °F 100 °F (1953)
Min Temperature 64 °F 58 °F 43 °F (1946)
Cooling Degree Days 9    
Growing Degree Days 24 (Base 50)    
Moisture  
Dew Point 62 °F    
Average Humidity 66    
Maximum Humidity 84    
Minimum Humidity 49    
Precipitation  
Precipitation 0.06 in - - ()
Sea Level Pressure  
Sea Level Pressure 30.15 in    
Wind  
Wind Speed 4 mph ()    
Max Wind Speed 17 mph    
Max Gust Speed 44 mph    
Visibility 9.4 miles    
Events Rain , Thunderstorm    
Averages and records for this station are not official NWS values.
T = Trace of Precipitation, MM = Missing Value Source: Averaged Metar Reports

Daily Weather History Graph

Daily Weather History Graph

Search for Another Location

Airport or City:

Astronomy

Sep. 01, 2019 Rise Set
Actual Time 6:49 AM EDT 7:52 PM EDT
Civil Twilight 6:21 AM EDT 8:19 PM EDT
Nautical Twilight 5:48 AM EDT 8:52 PM EDT
Astronomical Twilight 5:14 AM EDT 9:26 PM EDT
Moon 9:16 AM EDT (9/1) 9:39 PM EDT (9/1)
Length of Visible Light 13h 57m
Length of Day
13h 02m
Waxing Crescent, 8% of the Moon is Illuminated
Sep 1
Waxing Crescent
Sep 5
First Quarter
Sep 14
Full
Sep 21
Last Quarter
Sep 28
New

Hourly Weather History & Observations

Time (EDT) Temp. Heat Index Dew Point Humidity Pressure Visibility Wind Dir Wind Speed Gust Speed Precip Events Conditions
12:53 AM 66.0 °F - 59.0 °F 78% 30.18 in 10.0 mi Calm Calm - N/A   Clear
1:53 AM 66.0 °F - 60.1 °F 81% 30.18 in 10.0 mi Calm Calm - N/A   Clear
2:53 AM 64.9 °F - 60.1 °F 84% 30.16 in 10.0 mi NE 5.8 mph - N/A   Clear
3:53 AM 66.9 °F - 60.1 °F 79% 30.19 in 10.0 mi NW 4.6 mph - N/A Thunderstorm Scattered Clouds
4:21 AM 66.9 °F - 60.1 °F 79% 30.23 in 6.0 mi ENE 8.1 mph - 0.03 in Rain , Thunderstorm Light Thunderstorms and Rain
4:53 AM 66.9 °F - 60.1 °F 79% 30.16 in 10.0 mi Calm Calm - 0.04 in Rain , Thunderstorm Light Thunderstorms and Rain
4:58 AM 66.9 °F - 60.1 °F 79% 30.20 in 10.0 mi Calm Calm - 0.00 in Rain Light Rain
5:53 AM 66.9 °F - 62.1 °F 84% 30.19 in 10.0 mi North 8.1 mph - 0.00 in Rain Light Rain
6:53 AM 66.0 °F - 61.0 °F 84% 30.20 in 10.0 mi NNE 5.8 mph - 0.00 in   Mostly Cloudy
7:53 AM 66.9 °F - 62.1 °F 84% 30.22 in 10.0 mi North 4.6 mph - 0.00 in   Mostly Cloudy
8:53 AM 71.1 °F - 63.0 °F 75% 30.22 in 10.0 mi ENE 3.5 mph - 0.00 in   Clear
9:53 AM 73.9 °F - 62.1 °F 66% 30.22 in 10.0 mi Variable 5.8 mph - 0.00 in Rain Light Rain
10:53 AM 77.0 °F - 63.0 °F 62% 30.22 in 10.0 mi Variable 4.6 mph - 0.00 in Rain Light Rain
11:53 AM 80.1 °F 81.7 °F 64.0 °F 58% 30.20 in 10.0 mi ESE 4.6 mph - 0.00 in Rain Light Rain
12:53 PM 82.9 °F 84.6 °F 64.9 °F 54% 30.18 in 10.0 mi Variable 4.6 mph - 0.00 in   Clear
1:53 PM 82.9 °F 84.4 °F 64.0 °F 53% 30.15 in 10.0 mi Variable 3.5 mph - 0.00 in   Partly Cloudy
2:53 PM 84.0 °F 85.8 °F 64.9 °F 53% 30.12 in 10.0 mi East 5.8 mph - 0.00 in Rain Light Rain
3:19 PM 84.0 °F 85.4 °F 64.0 °F 51% 30.14 in 10.0 mi East 4.6 mph - 0.00 in Thunderstorm Partly Cloudy
3:29 PM 82.9 °F 84.4 °F 64.0 °F 53% 30.14 in 10.0 mi SW 4.6 mph - 0.00 in Thunderstorm Thunderstorm
3:40 PM 72.0 °F - 62.1 °F 71% 30.15 in 1.8 mi South 17.3 mph 43.7 mph 0.02 in Rain , Thunderstorm Thunderstorms and Rain
3:46 PM 73.0 °F - 61.0 °F 66% 30.14 in 3.0 mi SE 11.5 mph 31.1 mph 0.02 in Rain , Thunderstorm Heavy Thunderstorms and Rain
3:53 PM 77.0 °F - 60.1 °F 56% 30.10 in 10.0 mi East 4.6 mph - 0.02 in Rain , Thunderstorm Light Thunderstorms and Rain
4:18 PM 77.0 °F - 66.0 °F 69% 30.13 in 10.0 mi Variable 3.5 mph - 0.00 in Rain Light Rain
4:53 PM 82.0 °F 84.1 °F 66.0 °F 58% 30.09 in 10.0 mi Calm Calm - 0.00 in   Clear
5:53 PM 84.0 °F 84.9 °F 63.0 °F 49% 30.07 in 10.0 mi SSW 6.9 mph - N/A   Clear
6:53 PM 82.0 °F 83.1 °F 63.0 °F 52% 30.07 in 10.0 mi South 5.8 mph - N/A   Clear
7:53 PM 79.0 °F - 61.0 °F 54% 30.07 in 10.0 mi SE 4.6 mph - N/A   Clear
8:53 PM 78.1 °F - 61.0 °F 56% 30.06 in 10.0 mi SSE 8.1 mph - N/A   Scattered Clouds
9:53 PM 77.0 °F - 61.0 °F 58% 30.06 in 10.0 mi SSE 8.1 mph - N/A   Mostly Cloudy
10:53 PM 73.9 °F - 61.0 °F 64% 30.06 in 10.0 mi SSW 3.5 mph - N/A   Clear
11:53 PM 73.0 °F - 61.0 °F 66% 30.05 in 10.0 mi South 3.5 mph - N/A   Partly Cloudy